Back to catalog

STARLINK-32348

AliveCommunicationsVLEO
NORAD 61631·PAYLOAD·🇺🇸 United States

Launched Oct 23, 2024 from Cape Canaveral Space Force Station

Loading…

Next Passes (next 24 hours)

TLE

FreshSource: CelesTrak SupGP

Epoch: Sep 14, 2026, 22:23 UTC

1 61631C 24191L   26257.93312500 -.00042601  00000+0 -15429-2 0  2573
2 61631  42.9998 169.3134 0001294 268.4310 236.8999 15.27600973    14

Track STARLINK-32348 in real time with AllMySat

Download on the App Store